indice_tiempo,nivel_general,elaboracion_productos_alimenticios_bebidas,elaboracion_productos_tabaco,fabricacion_productos_textiles,fabricacion_prendas_vestir_terminacion_tenido_pieles,curtido_terminacion_cueros_fab_marroq_talaba_calzado,fabricacion_prod_madera_corcho_no_muebles_art_trenzables,fabricacion_papel_productos_papel,edicion_impresion_reproduccion_grabaciones,ab_coque_prod_refinacion_petroleo_combustible_nuclear,fabricacion_sustancias_productos_quimicos,fabricacion_productos_caucho_plastico,fabricacion_productos_minerales_no_metalicos,fabricacion_metales_comunes,fabricacion_productos_elaborados_metal_excepto_maquinaria,fabricacion_maquinaria_equipos,fabricacion_maquinaria_oficina_contabilidad_informatica,fabricacion_maquinaria_aparatos_electronicos,fabricacion_equipos_aparatos_radio_television_comunicaciones,fabricacion_instrumentos_medicos_opticos_precision_relojes,fabricacion_vehiculos_automotores_remolques_semirremolques,fabricacion_equipo_transporte,fabricacion_muebles_colchones_industrias_manufactureras
1990-01-01,102.06536310142215,99.3878323073595,151.70264968628678,127.94971286954807,141.71277547556755,96.77103115651995,100.33755797444205,106.72017310527157,87.44830102094318,300.5484203120546,98.15271510944429,70.7488392391823,101.02609687483331,136.7824610129785,83.05794717671432,95.26187828629824,115.3924297218138,130.95748468135767,96.07568197790295,99.12330904958456,79.03537519843499,116.95082101180981,87.86660233516861
1990-04-01,113.80238260172385,104.58820358699867,140.88102248613566,155.5009850839555,164.85998937320872,122.78784745933494,96.49241381364331,113.24934749499961,89.12968272189327,310.50813780801485,103.5684448221877,84.59923089957475,107.36927152799767,156.59448610692692,90.39913005198181,119.54367320324361,143.4669674406987,146.2783126506187,107.96583484587332,119.4146804002256,90.97340351268244,120.41773632962547,99.07710908268827
1990-07-01,118.35400302391194,111.72266603345489,131.25969189119675,167.19919678002492,162.8096791400846,135.37998112129196,114.92741522867264,118.85611224897113,91.47151989903908,291.5368072703366,108.16265327219396,94.14106167031095,112.59611576239655,143.28173605061951,91.9845848901449,119.93318607074134,138.2292059246019,141.6536048289861,115.95219270354929,122.12797664121715,90.54380198457085,143.54509792837868,107.60981951926404
1990-10-01,119.25957557662568,109.38278997618788,140.104837903433,153.9062902163028,163.27880176995026,123.995986348131,115.28580238314709,117.72429779294728,89.0244729147196,296.79124843739237,107.90893787517882,95.56980877831022,111.88351159242912,159.12740903580502,102.71733586464039,127.76051240619226,146.8387945748533,149.3199599120767,117.30012619602414,131.04195005313227,100.16761409495466,151.14730494613787,112.68087946347225
1991-01-01,96.43546178327188,97.62113861170681,160.11285067416134,120.00939597598091,117.12071308100867,105.79266808430276,95.55479019904857,97.45380799706118,81.10339384379084,305.16458467250243,90.29697350502924,72.3201714949678,92.17375923445066,118.23303756326506,79.05300506596879,89.87009544737991,114.82832928538667,118.3641771779387,92.13899793825507,100.08891499591036,64.27252902572818,115.16572836077755,88.32023014161427
1991-04-01,114.23472920335286,110.9287940084364,169.13944946742023,154.25386493971615,148.93461317157488,127.23394050326515,113.18083243870984,113.66999325249127,83.44898061162255,310.86806122733014,106.65028091365097,92.76816303022031,103.66608174723945,129.46960171695395,96.51833560335726,110.17662329968543,142.87236800853378,142.66089314378482,113.23739176624544,133.43855389554818,86.51837053489915,134.35758776506037,101.72143077544047
1991-07-01,118.98596483140612,111.6294383737851,137.77249260467678,161.32789580988413,152.4770429788748,127.45183416723785,117.37351847558075,116.26975678214122,88.79368966597937,301.76578817603354,111.11686086217911,98.45203939223683,115.06616305037858,137.93999967314264,103.16464886605044,115.11289562955305,145.02713174621587,145.6551053650531,123.1123645748558,132.6663514794075,104.03325855417597,137.61534221112393,111.51055010201814
1991-10-01,116.17490638944908,111.07454704790986,116.88917328429903,145.31576663213175,143.3435437566258,125.66396107220626,117.20393775874552,112.2591208834808,93.5657505115472,246.5992458743118,109.81978538637262,102.32742833634276,114.56823074494986,122.54243379254083,104.59603467826001,111.13816833328613,136.65591505377463,142.891864647567,145.41424678748857,127.24117070202432,103.6406740741604,134.0074307780865,112.24768977306846
1992-01-01,101.51789312922189,102.28526344667512,125.79010925607356,131.6210800542098,113.68053298802825,104.7169736504975,88.75775844403668,105.96044132730277,99.55210482424856,230.64139761515386,97.9067452910069,85.45119727166458,103.01488863791239,103.73047777200698,87.15205802938276,87.82933835516825,101.1936908392138,104.92970592702616,121.42652266623206,100.63806808526819,84.91743887582167,128.16078119692455,103.23698410208021
1992-04-01,118.04921695392035,109.58868174999792,128.19991051807233,160.08311133780612,148.50540923355965,120.94807065513497,104.83292587217584,118.93819479465232,101.32499696850742,221.54866895808695,110.23021841939621,104.62656570737386,113.97581556571147,115.59841102911483,103.27532635263778,109.49206972923157,128.81802835072943,127.20699997485666,169.40431614874782,124.2347104724553,123.68424649723657,142.05322441007561,125.83754673965166
1992-07-01,121.23075744594244,111.71436035741205,104.57313347865134,151.1149877591225,155.68774869522463,118.85541148754056,120.27463044818334,125.20316907076635,109.5764908005467,221.24054034523544,111.73407504445495,106.98401567415483,121.56103609227415,111.92231477768223,106.95386019398138,110.11113002286383,136.52295264470027,136.52257593076035,184.2126851726017,126.66895977086824,138.9518604337036,155.79831558047252,134.52261744589853
1992-10-01,116.7121348279716,110.0937079831187,100.37155371031596,135.41948370020802,148.07857722392907,103.1709233398845,112.71103469701224,117.14383795442262,114.12078669649858,208.63811507535482,109.93761099864459,104.96756189134501,110.34810703763033,113.84128758483857,107.53097333351884,110.64433479389228,135.3602111712961,135.99236079950114,167.36004980935851,109.78967843816508,132.1256228120494,141.22633717419112,129.97250415686048
1993-01-01,98.78435969267805,101.52938590032308,123.44584765528008,107.67231978684002,104.76662230596129,91.67465565914554,89.64164863382031,104.97925042586856,103.18056362829755,174.07555454100657,96.35012963808036,84.4258349218846,97.0322124233176,94.7383428028742,89.39337945814451,90.96480174035801,108.15643568171932,96.23672648179883,127.46144611741846,79.21498021371409,99.15043009623022,121.2352970334358,106.5850110371036
1993-04-01,114.15636438318354,110.07187676844416,124.3547365106709,134.49378600130512,132.33587382204124,106.87956085403643,100.9266537785644,116.97872966712589,102.56122514063499,168.5081311561969,110.5919101341677,101.10432377923372,111.726490166817,109.74857274347379,103.94359978080072,109.34637734703414,131.5919041544833,126.48318858018631,159.31415827851418,104.89341631754125,127.36954323917885,138.241102602717,120.03557541549856
1993-07-01,115.3674498253443,112.18003961270136,100.83574783967826,130.42602069703622,127.9528590883011,108.61236808129675,102.898522578974,119.1860158365223,106.79207010503669,164.4284385925304,112.94564007221659,103.97065940433464,113.94962904230675,112.75520361625367,105.50514924760698,104.82865897443854,124.41698650775643,125.20415686446503,170.95119788405722,102.19470769074859,133.990244866836,131.66575673297723,124.07635370604498
1993-10-01,113.73131851676207,109.30681099567917,104.2768508779965,119.13711098216648,122.23108274633104,109.31031174521797,106.77620257497948,118.76707856215464,119.58001382125187,135.89781315968898,107.95968156350466,102.40343207832025,112.59141095893847,111.72234306851323,108.08011404162508,101.94880976049036,116.73032738424008,127.56322230357884,161.2661815028211,98.84426210700599,138.31949714471585,127.02563909575544,123.90609991543073
1994-01-01,99.38770920532919,104.11381402676275,107.83765858678039,99.0658952067056,93.74719462954225,101.7229489555321,93.78257311468045,112.2488357169352,112.66773008664505,111.80270347730226,94.74230484423565,82.37692058542534,96.1952353421538,92.55200572912136,90.05222240227536,88.42902313932447,101.42453951249139,95.02705987911689,122.27563519054969,83.23080923220554,110.38188270927371,90.21892081157146,105.94065756485092
1994-04-01,112.03300958376137,109.20124986037479,121.72665026135245,120.49452008081961,120.95376205518843,106.00371838103821,109.5762562715611,120.7837243174167,110.50557091739486,113.09325039065526,108.14916652085955,97.26044877357417,107.79661097270215,108.99201703875549,104.05248788380231,103.68556823224927,119.54619785069166,119.86983881933988,136.79821776213421,96.02461745282264,137.0007357433299,117.80319023721638,119.5022904135674
1994-07-01,113.60665437713651,112.67623570332945,103.71895128261356,118.10760002858066,124.71467419038758,108.9749534093822,111.68171918319844,120.26343696881789,109.83278011865814,114.12552307263566,110.4296494746887,100.15014106835136,109.88105777013148,106.71698771137727,100.9066885506108,106.3046639785738,130.44845312194556,119.03016996863325,138.37419480044363,97.00810499074707,140.79709812490898,106.58574806366369,123.53980487968398
1994-10-01,110.81735125215133,107.21237386824087,104.03581658678736,107.53728132726118,124.56848276740114,101.65589369938861,102.53767058849903,116.52701361844409,115.07625786420033,111.46261753498766,109.63066208480949,100.3744480166738,108.25041924517345,105.84138582659163,103.43443540506408,108.30544056806062,132.02769794101334,117.50865831547132,139.66929717437444,97.47726148611103,139.85616084987888,107.32540237390153,119.10740878278149
1995-01-01,96.5344820636964,101.5023822700628,118.41662654544456,94.95551121788924,97.90982460094482,88.3963152269775,87.92612277746396,105.75026781143794,104.48509626784178,103.0723920634241,96.15384607641028,89.54507930542181,94.61815496120414,92.85503731711897,89.43757203091133,90.3378539399223,105.58161555635849,87.06036146590031,89.11855631387338,80.72550413559803,102.60266648414861,85.88521629550213,97.72422608857408
1995-04-01,100.39943188844022,101.79943223721078,105.9602993658122,105.8860969507492,98.70396340028384,94.27067237866552,93.98123889632171,106.40490557155466,98.30164136578907,108.19268408943256,103.20408356487354,95.24422550147011,95.96558968168387,103.20624841226542,92.07563499308203,92.85119716875334,115.5944569800314,103.78717517489568,110.63847923532975,89.46160276792682,110.59476119462904,85.52644060242612,97.78504346948077
1995-07-01,98.60237739168869,102.05817792068308,90.13599191036322,96.82643844973353,97.21633538037901,89.68970359421907,96.6122048432682,109.08484057086275,99.57958315719075,107.89720509618544,105.72820625175457,95.18987442307831,92.03460238977408,104.19942953958852,89.69493798475821,90.70477535690868,117.80623656660916,100.31898544898976,101.72968426282839,86.60666549874618,102.56498795409841,80.49367246200518,99.38432916928708
1995-10-01,96.11849338640634,98.52790950681528,83.75047896864535,89.03980878044453,101.65062024408292,91.71267399698301,89.79841220345287,107.05609226424173,103.33915002964972,108.35969383122244,104.36929719227207,93.60776476104863,86.74840194507722,99.77716410241656,89.69345830346282,93.1376009160454,114.10574057735504,96.1691013705259,91.38318725987013,84.90697316047677,95.46675650105657,85.98438694822983,99.6203035184877
1996-01-01,87.69979257308874,91.87211594269466,91.42620243094784,84.43531705293762,83.28029004553763,85.13631047944101,80.18357993265568,101.51265200303925,98.60231360242541,97.83599799969188,90.2305545963401,82.24358565926963,84.1259022014205,89.55272139243093,79.74146097628496,83.4506363085694,97.49483856142751,77.64095031900659,74.82583473976288,73.9507337607185,89.28689437830928,69.63668758690207,88.06582902335755
1996-04-01,98.92822064329538,96.19110211080462,92.27334317578176,107.737837920987,101.65448122777903,94.31151675485181,86.17165251229952,106.0077024155466,95.32900610426627,108.50600240076251,103.95953674848614,96.20282178528863,93.29220255302619,104.97031541038317,90.50733909510835,96.5602118184826,108.96019656642531,97.95522576204466,89.36748984701332,83.3912729883932,113.58954619730588,89.04465677301047,102.34050356309479
1996-07-01,101.18071910501108,101.02746011793707,84.33008705293317,105.94440332709466,113.93116699386425,91.24805662086693,89.26067908434,109.85138271202615,105.69041779132209,105.82757258797741,103.93363771045203,105.49379732064855,98.74073980650788,101.6364219207908,93.57161558505969,99.38351472072365,115.54675436359956,104.31484906538209,110.37067619257974,100.02471923940521,100.09200870274587,97.29156871305752,97.01138128430578
1996-10-01,101.09858091557952,101.57511580097562,83.08188851511808,96.44501862081555,111.34470337052272,95.02687598423634,89.60115248645643,106.38547605068703,105.27653352449424,106.96227964474919,103.69368198760392,104.00816713674082,99.72818545287704,100.65196086690703,96.71165932373059,102.75414925082792,107.19216218630714,103.11010883882604,112.53978334287864,94.07182056375768,100.81755998291861,96.31926941168798,101.67970085078008
1997-01-01,92.2173642077396,98.76788996493643,122.15622,91.99636917705841,88.93560000000001,93.99232474212617,89.16417000000001,97.4448306120948,93.77591931341755,92.65547488429814,90.98968851890255,87.9849882273724,89.50861308251648,88.02663150726563,90.1360683395684,89.542657516152,106.69098333333334,84.68799368139567,85.53633372707152,85.61244333333333,82.8815401149111,93.99347647883542,82.76059938980589
1997-04-01,103.54862855129261,102.38330954143845,130.63896333333332,111.7815412534548,107.29002333333334,105.8406999312325,102.46387666666668,104.15469881660438,98.49187005311124,103.58549799555277,102.12921213273658,103.18431659866472,101.03372931791175,103.6710985382327,101.15932862107114,102.39552100326334,109.98717666666668,104.16841256754985,102.79436872602109,103.92202666666667,103.3226741703158,98.95918123419354,101.40265820392723
1997-07-01,103.86171522773107,101.52189740811987,75.64464666666667,104.51747687802474,105.67212666666667,104.4922716456796,104.99893333333334,104.6618441487456,103.74061897775135,101.30907942369902,102.34606270821502,104.2391208663721,105.15967019801639,105.59278605115954,103.09612637520257,104.87982511958842,96.96956,107.21269798346653,106.49183044647295,105.77008666666666,108.93778153183563,100.57330970966416,108.56477043877624
1997-10-01,100.26714171181582,97.3269025281412,71.56017666666666,91.7046148709238,98.10224333333333,95.67470096594583,103.37302,93.73862642255519,103.99159607505487,102.44994769645007,102.90470432348111,104.59157347613308,104.29798827128779,102.70948093123803,105.60847666415789,103.18199822033928,86.35228333333333,103.93089781314177,105.17746711869302,104.69544,104.85800569709409,106.4740334538825,107.2719700812908
1998-01-01,91.23834081296145,96.16774232339816,107.36063333333334,82.27368958158159,86.54193333333335,87.09623169317541,99.19703333333332,85.84615037309236,99.82606477629177,94.97807983677417,90.51664668692734,91.02441300925267,91.0699487744945,89.17836212695174,93.28900109198135,90.92210736977718,81.52535666666667,88.32871783586963,82.2340147889672,88.85223333333334,84.64813579400247,92.19817483657584,89.92073461591879
1998-04-01,98.30839236401316,95.74819258051484,113.098,96.2193253683838,95.75316666666667,96.67437589517283,101.78006666666666,88.07645154427637,100.6744074322729,104.83716543311458,100.27239456539228,100.45309397683643,94.48626259096422,101.29885487800772,100.45484044190975,101.19648870075726,81.94153666666666,102.67913504744585,100.31753127119173,100.18026666666667,103.98539317575592,97.49127662781126,102.25815049401736
1998-07-01,99.17895975702675,97.68258388589095,61.86973333333333,93.57482545244449,97.77986666666668,93.90762638092161,106.51709999999999,89.83606722469035,101.93144576433492,103.11406797067842,100.94853756213642,103.1646227867361,97.6596391912135,100.58537503047569,97.00246214321243,107.36077601677518,82.29593999999999,104.5635603530631,101.79042426875735,101.08603333333333,105.3902225295209,102.43415165999012,105.67115309565463
1998-10-01,92.58212043316007,95.18287010814963,58.676633333333335,78.29972250697719,91.9959,91.43259413303646,106.27416666666666,83.25922443158919,100.46613566132639,102.14794125779024,97.30656753077534,96.26213323500765,92.22758011387917,94.21966742963805,85.25021554079325,103.43513079910299,77.23450666666666,95.36426742023065,92.3684407795697,98.48023333333333,82.25579949098038,98.91788947472696,100.57430467803248
1999-01-01,83.25564823565155,93.30280686973599,93.31376666666667,69.92052085892136,78.23559999999999,79.98197626289414,95.63913333333333,77.40442085568814,95.46236234023455,93.57802747368267,85.06775224689132,85.50631942906735,80.50839239144575,81.28090512052837,74.40384658654688,86.91154291212257,76.28481333333333,78.49457868373081,78.34276990629625,84.9491,61.041663871076025,85.2056143964103,85.27949714019353
1999-04-01,88.11826494975459,93.52147401951525,95.22896666666666,80.20109866774355,82.90276666666666,92.4931796354562,96.31283333333333,82.08879888809675,94.38264342804062,102.77513416049231,93.15824197567365,88.71960847075104,84.77794607008536,89.1118018697835,79.52223913207625,94.19430541153072,90.63254666666667,84.46088870810686,82.31733978969896,99.4484,69.52126548071105,95.55492372873589,91.49085178411956
1999-07-01,86.9788169348102,93.66448531960542,58.82993333333334,75.63256757849678,80.47,87.51845929166784,98.04143333333333,82.39803119682368,93.85088579194966,99.06807798954516,94.34969352166438,89.40583560768073,83.13889834946049,86.51625435681575,79.63830127316852,90.75491691941933,75.28332666666667,82.4904499030459,84.11893170939938,98.51139999999998,70.42286236424684,89.0070607087424,92.0505317314162
1999-10-01,84.98658701491242,91.15264973530321,57.4511,69.61956362937697,79.78506666666667,90.17194423677661,91.57556666666666,79.12144397969199,93.71459323748014,96.51210312822747,92.26783398251693,89.01184131739545,80.45524798597378,85.19209275209509,77.33669081619273,88.65781036221368,79.15525666666666,79.28590703235255,83.8589646660696,89.92633333333333,71.3695158343621,94.09862550821492,89.84675914514408
2000-01-01,78.43994314541216,88.40760451647839,83.68966666666667,65.22549469737861,72.33126666666668,81.97706805741258,82.30556666666666,73.57202868513058,90.6365129303317,89.89795336520228,84.3592311949659,80.51280892924645,71.9796561091201,77.3100802219047,72.08790963359263,78.50965555530036,71.25541666666666,65.76595926656223,72.44963896262723,74.05403333333334,60.03832348462141,78.85087134165923,74.99647367397755
2000-04-01,81.12011768737278,87.31817517645938,96.01596666666666,74.27123997234928,76.74256666666666,86.19494667348188,84.71943333333333,75.67610891235434,88.63593291431532,90.41305463256971,88.8917044741355,83.56353674062728,74.07988563069951,82.80136182218202,74.89894607076116,79.70488045918732,74.83854333333333,72.42303813076751,76.09050192447724,74.33539999999999,65.07887555109578,83.46352842334089,81.74666942178993
2000-07-01,80.80287426792121,88.20364368539903,58.39576666666667,71.21091914214512,77.03823333333332,87.45719764749259,85.3273,75.11426948898344,87.14917330624239,88.24745713400846,88.61903228105542,86.33769661897539,72.0269669532342,82.26365373902986,74.36639249150481,76.93392066327021,76.51755,74.31314203602568,78.31436539839365,78.15953333333333,65.41106093835258,84.47848791408072,80.89682555598023
2000-10-01,76.65940450634008,82.79601419124357,55.14906666666666,63.35594806033745,72.79076666666667,87.5727020599157,78.3206,71.8945505199615,85.37153469529547,87.31726650288245,85.26310058500523,81.30837798115674,70.37985475195431,81.78367626276065,71.06850466220162,73.32742729931068,81.65096666666666,70.34165196987577,74.875915384516,74.50783333333334,59.84200159983018,80.48910581925564,78.43464789120115
2001-01-01,70.91890796508318,81.29677792579997,79.67013333333334,59.4988079667721,66.7235,71.58306243669837,70.30193333333334,68.93566570066771,82.82535971816597,84.6924133618213,78.0302677296488,74.99779662787374,62.951615826277795,73.11432161601125,65.81218114921626,64.24793948559646,68.08991999999999,61.0721515940898,61.09219751268427,67.18393333333333,47.84437726167801,74.5514132456726,70.65911291961153
2001-04-01,74.69375949889185,82.17831817110148,101.89643333333333,68.26938098608497,70.9603,75.49087005024815,77.0503,71.57317357703148,80.53098103649607,91.0334327357403,83.49169223742598,79.5555306234207,64.80502531249932,80.33370466019785,61.37702566649896,71.04429800903226,81.25755333333333,67.28470319798943,68.55657384528318,71.6589,57.55856580371102,88.51643320813542,73.69990907802337
2001-07-01,72.4807811134982,83.08140675841986,74.1558,64.47505384178703,69.89126666666668,69.36622369939211,73.87020000000001,70.93168441366129,81.29414505778884,90.10834873279414,83.51426805327561,76.72490897218414,63.108312280699344,77.11318103521035,57.01563239926767,70.52496418083376,77.55547666666666,62.46777276778544,59.158122446064034,74.82639999999999,49.01534825577692,80.03817612527203,70.63431665350758
2001-10-01,65.5294041370297,76.75639162001094,52.97053333333333,52.13583191408309,61.433933333333336,62.05687408920381,61.4941,66.97162081915484,78.76288009977718,87.83613831037913,77.94867242622529,71.01569498165428,54.546275986401895,71.09140967265732,52.2153633889962,63.64985502704994,82.02663,56.144696851387955,49.60096208098924,70.39726666666667,40.888791305964496,74.57256505553846,64.28078779985547
2002-01-01,55.14005746807252,71.25840845078272,87.60696666666666,38.6382600871186,37.43966666666667,49.415627860698955,50.833000000000006,59.80962257325146,68.70149875797466,81.92036040731918,67.61171786378401,59.67265401414273,41.7400473331158,61.55807252374701,40.03662190005877,48.88796741761917,71.38392,43.076541208903045,30.928202863585877,57.9849,31.55189285052499,57.14607363287621,43.44979910557174
2002-04-01,63.65880223540784,77.73831253029184,115.37856666666666,51.36577671926929,43.124,67.10582885288107,62.435833333333335,65.74838802110817,70.96987153962606,90.92945613260757,77.49020182986071,69.97017067894556,49.90400531432883,72.69468164059488,45.41382157572453,56.98292680393677,75.09646,48.555748163382695,35.02085813628476,62.02343333333332,41.91354809946844,66.65006314917491,50.96267170352926
2002-07-01,66.47600877162888,79.92029398010021,93.92379999999999,55.82119576531014,47.8442,74.705203502945,70.596,67.1229115785801,69.95618520042251,91.43130670072675,78.11043175364496,73.96927195926962,52.993121212238854,74.49171846561197,49.615927174495575,60.972435292801464,72.00531333333333,51.58596613598795,36.793838634328644,63.842099999999995,43.7740954934425,69.12347706602056,54.35748698751783
2002-10-01,66.14777933416048,75.96548483513497,73.44479999999999,58.16216357868032,50.96203333333333,79.02550865112633,70.5245,65.51374838619724,70.17714522026112,90.52401627770568,78.06684719752666,75.17704625610934,53.16586225274875,75.1527158040244,52.660380119739955,63.224968882613325,71.82576333333334,53.482946730998435,36.747521835646914,63.946400000000004,42.60427906456949,70.63295384966621,54.513681996133165
2003-01-01,63.76501255977937,75.89583787708807,108.72203333333334,56.36994922843467,49.668600000000005,76.87811965976873,68.48316666666666,61.95555369001831,66.6487638980757,84.05069171138867,72.15808885005202,72.03809428556781,50.47439177725128,68.2163918709996,51.40931590641636,59.94778046089011,69.69881333333332,48.201483491531604,33.86662695071326,58.2443,36.96663307726142,63.67659871716259,50.60606632099765